Content
SEND FEEDBACK

Daily
Averages
Monthly
Summary
United States of America

ANN ARBOR, MICHIGAN


Home > North America > United States > Michigan
Elevation: 759 feet     Latitude: 42 17N     Longitude: 083 43W

WEATHER
 
SELECT A DAY
Number of Records: 203,295;   Date Range: 1/1/95 - 7/26/14
 
SHARE

PRINT THIS DATA

[ ← Previous Day ]
WEATHER ALMANAC - MARCH 4, 2013
[ Next Day → ]
[ °C ]   °F
Weather ElementAverageHighLow
Temperature23.9 °F33.1 °F (3:53 pm)10 °F (4:53 am)
Dewpoint14.2 °F18 °F (6:53 pm)7 °F (4:53 am)
Humidity67.8 %87 % (4:53 am)50 % (3:53 pm)
Barometer30.13 in30.17 in (7:53 am)30.10 in (2:53 am)
Wind Speed3.3 mph8.1 mph (7:53 am)
Weather ElementAverage
Visibility10 mi
Wind DirectionSSE (169 °)

Weather ElementTotal
Precipitation---
Heating Degree Days43.5 (Base 65)
Averaged from 21 records on March 4, 2013
WEATHER CONDITIONS BREAKOUT
WIND DIRECTION BREAKOUT
WEATHER BY HOUR - MARCH 4, 2013
[ °C ]   °F
Local TimeTemperatureDewpointHumidityBarometerVisibilityWind DirectionWind SpeedGust SpeedPrecipitationEventsConditions
1:53 AM19.0 °F12.0 °F74 %30.11 in10.0 miNW (310°)6.9 mphClear
2:53 AM18.0 °F10.9 °F74 %30.10 in10.0 miNNW (330°)4.6 mphClear
4:53 AM10.0 °F7.0 °F87 %30.12 in10.0 miWNW (300°)3.5 mphClear
5:53 AM14.0 °F10.0 °F84 %30.15 in10.0 miNW (320°)4.6 mphClear
7:53 AM17.1 °F10.9 °F77 %30.17 in10.0 miNNW (340°)8.1 mphClear
8:53 AM19.9 °F12.0 °F71 %30.17 in10.0 miNNW (330°)4.6 mphClear
9:53 AM23.0 °F12.9 °F65 %30.17 in10.0 miCalmClear
10:53 AM24.1 °F14.0 °F65 %30.17 in10.0 miWest (260°)4.6 mphClear
11:53 AM27.0 °F14.0 °F58 %30.16 in10.0 miCalmClear
12:53 PM28.0 °F15.1 °F58 %30.15 in10.0 miSW (220°)4.6 mphClear
1:53 PM30.0 °F15.1 °F54 %30.13 in10.0 miWSW (240°)4.6 mphClear
2:53 PM30.9 °F16.0 °F54 %30.11 in10.0 miWSW (250°)4.6 mphClear
3:53 PM33.1 °F16.0 °F50 %30.12 in10.0 miWest (270°)5.8 mphClear
4:53 PM32.0 °F15.1 °F50 %30.11 in10.0 miWest (260°)4.6 mphClear
5:53 PM30.9 °F15.1 °F52 %30.10 in10.0 miCalmClear
6:53 PM27.0 °F18.0 °F69 %30.10 in10.0 miCalmClear
7:53 PM26.1 °F16.0 °F66 %30.11 in10.0 miCalmClear
8:53 PM21.0 °F16.0 °F81 %30.12 in10.0 miCalmClear
9:53 PM23.0 °F18.0 °F81 %30.12 in10.0 miCalmClear
10:53 PM21.9 °F18.0 °F85 %30.13 in10.0 miNE (40°)4.6 mphClear
11:53 PM26.1 °F17.1 °F69 %30.14 in10.0 miEast (80°)3.5 mphClear
Hourly data recorded from KARB, located miles away from Ann Arbor, Michigan







STORIES FROM OUR PARTNERS